SCP
0 0 0 0 0 0 0 0 0 0 0 0 0 0 0 0 0 0 0 0 0 0 0 0 0 0 0 0 0 0 0 0 0 0 0 0 0 0
0 0 0 0 0 0 0 0 0 0 0 0 0 0 0 0 0 0 0 0 0 0 0 0 0 0 0 0 0 0 0 0 0 0 0 0 0 0
0 0 0 0 0 0 0 0 0 0 0 0 0 0 0 0 0 0 0 0 0 0 0 0 0 0 0 0 0 0 0 0 0 0 0 0 0 0
0 0 0 0 0 0 0 0 0 0 0 0 0 0 0 0 0 0 0 0 0 0 0 0 0 0 0 0 0 0 0 0 0 0 0 0 0 0
0 0 0 0 0 0 0 0 0 0 0 0 0 0 0 0 0 0 0 0 0 0 0 0 0 0 0 0 0 0 0 0 0 0 0 0 0 0
0 0 0 0 0 0 0 0 0 0 0 0 0 0 0 0 0 0 0 0 0 0 0 0 0 0 0 0 0 0 0 0 0 0 0 0 0 0
0 0 0 0 0 0 0 0 0 0 0 0 0 0 0 0 0 0 0 0 0 0 0 0 0 0 0 0 0 0 0 0 0 0 0 0 0 0
0 0 0 0 0 0 0 0 0 0 0 0 0 0 0 0 0 0 0 0 0 0 0 0 0 0 0 0 0 0 0 0 0 0 0 0 0 0
0 0 0 0 0 0 0 0 0 0 0 0 0 0 0 0 0 0 0 0 0 0 0 0 0 0 0 0 0 0 0 0 0 0 0 0 0 0
0 0 0 0 0 0 0 0 0 0 0 0 0 0 0 0 0 0 0 0 0 0 0 0 0 0 0 0 0 0 0 0 0 0 0 0 0 0
0 0 0 0 0 0 0 0 0 0 0 0 0 0 0 0 0 0 0 0 0 0 0 0 0 0 0 0 0 0 0 0 0 0 0 0 0 0
0 0 0 0 0 0 0 0 0 0 0 0 0 0 0 0 0 0 0 0 0 0 0 0 0 0 0 0 0 0 0 0 0 0 0 0 0 0
0 0 0 0 0 0 0 0 0 0 0 0 0 0 0 0 0 0 0 0 0 0 0 0 0 0 0 0 0 0 0 0 0 0 0 0 0 0
0 0 0 0 0 0 0 0 0 0 0 0 0 0 0 0 0 0 0 0 0 0 0 0 0 0 0 0 0 0 0 0 0 0 0 0 0 0
0 0 0 0 0 0 0 0 0 0 0 0 0 0 0 0 0 0 0 0 0 0 0 0 0 0 0 0 0 0 0 0 0 0 0 0 0 0
0 0 0 0 0 0 0 0 0 0 0 0 0 0 0 0 0 0 0 0 0 0 0 0 0 0 0 0 0 0 0 0 0 0 0 0 0 0
0 0 0 0 0 0 0 0 0 0 0 0 0 0 0 0 0 0 0 0 0 0 0 0 0 0 0 0 0 0 0 0 0 0 0 0 0 0
0 0 0 0 0 0 0 0 0 0 0 0 0 0 0 0 0 0 0 0 0 0 0 0 0 0 0 0 0 0 0 0 0 0 0 0 0 0
0 0 0 0 0 0 0 0 0 0 0 0 0 0 0 -0 0 0 0 0 0 0 0 0 0 0 0 0 0 0 0 0 0 0 0 0 0 0
0 0 0 0 0 0 0 0 0 0 0 0 0 0 0 -0 -0 -0 0 0 0 0 0 0 0 0 0 0 0 0 0 0 0 0 0 0 0 0
0 0 0 0 0 0 0 0 0 0 0 0 0 0 0 0 -0 -0 0 0 0 0 0 0 0 0 0 0 0 0 0 0 0 0 0 0 0 0
0 0 0 0 0 0 0 0 0 0 0 0 0 0 0 0 -0 -0 -0 0 0 0 0 0 0 0 0 0 0 0 0 0 0 0 0 0 0 0
0 0 0 0 0 0 0 0 0 0 0 0 0 0 0 0 0 0 0 0 0 0 0 0 0 0 0 0 0 0 0 0 0 0 0 0 0 0
Wind_Speed
3 4 3 3 3 3 3 4 5 3 3 4 3 2 2 3 7 7 6 12 14 13 12 11 10 9 9 9 8 8 7 7 7 7 8 9 9 9
2 3 3 2 3 3 3 3 4 4 3 3 3 2 2 3 6 6 7 11 14 13 13 12 12 11 11 10 10 9 8 8 9 10 9 9 9 9
2 4 4 4 3 3 2 3 3 3 4 3 2 2 2 2 2 3 4 4 5 12 13 13 14 13 13 12 12 11 11 11 11 11 11 10 10 10
3 3 4 4 4 3 2 3 2 3 3 3 2 2 2 2 2 3 3 5 4 9 13 14 15 14 13 13 13 12 12 12 12 12 12 12 11 11
3 3 3 4 3 2 3 2 1 1 2 2 2 2 1 1 1 1 2 2 3 5 9 12 14 14 13 13 13 12 12 12 12 12 13 13 12 11
3 3 3 4 5 4 3 3 2 1 1 1 1 1 1 1 1 1 1 1 2 1 2 3 6 10 11 11 11 11 12 13 13 13 13 13 13 13
2 2 2 4 6 5 3 3 3 2 1 1 0 1 1 1 1 1 2 1 0 0 0 1 1 1 3 6 9 12 13 13 14 14 14 13 13 14
2 1 1 2 4 4 5 5 4 3 2 1 1 1 1 1 1 0 0 1 0 1 1 2 2 2 2 2 4 7 10 11 12 13 13 13 13 13
2 1 2 2 2 2 2 2 2 2 3 3 1 1 0 1 1 1 1 1 1 1 2 2 2 2 2 4 7 6 5 4 4 5 7 9 10 10
4 3 2 2 1 2 2 2 0 1 1 2 1 1 1 1 1 1 1 2 3 3 2 2 2 2 2 2 6 7 7 7 6 5 3 4 5 6
5 5 3 3 2 3 3 3 2 2 1 2 2 1 1 2 2 2 2 3 2 2 3 2 2 2 2 2 3 6 6 6 6 5 5 4 5 5
4 4 5 4 5 4 3 3 4 1 2 2 2 3 3 3 4 3 2 2 2 2 2 2 2 2 2 2 3 3 4 5 6 6 6 5 5 3
2 2 2 3 4 4 3 2 2 2 2 3 2 2 3 3 3 3 2 2 2 1 1 2 2 2 2 3 3 3 3 3 4 4 6 8 6 4
2 2 2 1 1 2 1 1 3 4 3 3 3 2 2 2 2 3 4 4 4 3 2 2 2 1 2 2 3 4 3 4 4 4 4 8 8 9
2 3 1 1 2 2 1 1 3 3 3 3 3 2 1 2 2 3 4 5 6 6 5 4 2 1 2 2 2 3 3 4 5 5 5 7 7 7
4 4 5 5 3 2 3 3 2 2 3 3 3 2 3 4 4 3 3 3 4 5 7 8 6 4 3 4 3 3 4 4 5 4 5 7 8 7
3 4 4 4 4 4 3 3 3 3 4 3 4 4 5 5 4 4 4 4 4 3 4 5 5 6 8 5 4 4 3 3 4 4 4 6 7 6
7 6 6 6 5 5 5 5 5 5 4 5 5 5 5 5 5 5 4 5 5 3 3 3 3 3 3 6 8 4 3 3 4 5 4 4 4 4
8 7 6 6 6 6 5 6 5 5 5 6 6 5 5 5 5 4 4 4 4 3 3 3 3 3 3 2 4 8 4 3 3 4 4 4 2 2
6 6 6 6 6 6 6 6 6 6 6 6 6 5 4 4 4 4 4 3 3 3 3 3 3 2 1 1 2 3 7 4 3 3 3 3 2 4
5 5 5 5 5 5 5 5 6 5 5 5 4 4 4 4 4 4 3 4 3 2 3 3 4 3 1 3 4 3 4 5 4 2 2 2 3 4
3 4 4 5 4 4 4 4 5 5 5 4 4 4 3 4 4 4 3 3 2 2 2 2 4 4 4 4 3 2 3 5 6 7 6 3 1 2
2 3 3 4 4 3 3 4 5 4 3 3 3 3 3 3 3 3 3 3 2 2 2 3 4 4 4 3 3 3 4 4 4 4 5 8 7 6
Wind_Direction
217 210 201 202 184 173 161 158 162 197 258 267 271 280 236 212 209 201 202 209 207 208 209 210 215 222 227 227 231 236 241 242 243 247 255 266 276 283
214 203 206 202 189 176 172 174 171 173 218 254 253 269 265 224 207 198 207 213 213 211 213 214 216 220 226 229 232 233 232 230 235 242 249 258 267 276
219 213 213 192 181 181 172 170 178 173 211 258 258 262 245 234 192 197 208 213 221 221 221 222 222 223 225 228 230 231 230 231 235 241 246 252 259 268
228 221 211 183 173 171 164 174 186 193 198 241 275 271 249 229 207 205 210 214 216 227 227 229 231 229 227 229 230 230 231 232 234 239 244 250 255 263
198 187 173 149 152 157 157 161 177 187 191 210 258 274 276 248 202 234 225 227 222 230 233 236 238 235 232 232 234 235 236 237 237 237 240 246 251 258
179 163 165 167 166 159 152 151 141 123 141 190 250 284 284 277 171 219 249 229 235 240 253 246 243 242 240 241 241 242 242 241 240 239 239 240 244 250
107 131 156 172 171 163 153 151 135 119 108 100 23 352 343 358 275 227 221 223 268 273 308 7 339 279 257 250 249 250 248 245 242 241 240 239 240 246
98 91 111 131 163 156 152 158 156 142 139 118 82 26 332 316 324 7 143 109 24 14 63 25 32 10 345 329 307 280 266 257 248 243 241 241 243 248
71 103 129 122 136 131 135 154 178 177 156 147 144 197 243 319 49 47 54 77 85 13 57 41 23 30 15 14 12 15 5 343 296 266 259 258 257 257
35 44 89 96 132 147 128 111 18 304 210 154 169 196 169 125 103 111 104 78 59 27 42 72 12 5 358 356 13 31 37 39 38 31 5 331 309 295
29 36 64 73 61 124 123 118 84 25 70 133 147 131 98 90 97 79 63 70 58 23 21 67 14 348 345 343 356 17 26 31 30 25 16 1 344 330
16 22 42 60 62 82 119 136 131 111 90 94 69 50 46 48 65 82 105 98 91 46 9 54 22 12 11 341 346 354 1 8 11 9 3 357 351 350
3 355 347 32 60 63 92 128 143 133 111 112 94 70 53 48 46 49 66 100 108 86 13 82 48 26 33 341 340 350 2 357 358 0 5 7 9 9
335 311 285 318 38 59 93 117 98 97 102 102 95 82 71 57 52 56 57 60 68 88 88 83 85 49 39 18 344 339 3 12 10 5 5 9 17 27
330 331 330 28 44 36 45 118 88 96 106 109 112 100 79 71 65 63 54 59 54 47 39 33 55 64 67 52 2 347 352 5 10 14 25 37 33 27
14 16 45 66 67 47 49 76 88 107 117 121 114 87 64 58 49 54 69 68 60 30 24 31 37 57 70 57 58 29 16 13 357 9 41 54 47 41
25 39 46 48 54 55 58 65 70 81 88 90 93 85 73 65 52 47 62 65 68 47 22 18 36 58 62 57 55 31 22 19 3 2 42 65 52 34
49 51 51 51 55 56 63 63 61 67 74 84 85 85 83 79 71 57 62 72 73 54 32 5 8 33 47 54 37 30 24 12 358 8 35 71 60 23
52 49 49 49 52 55 59 66 63 58 69 79 84 84 84 79 76 69 67 70 66 53 26 13 25 57 69 53 34 33 34 10 13 25 29 48 54 352
40 42 41 42 48 55 59 64 66 64 68 74 77 76 79 83 80 74 71 79 75 57 31 18 20 31 98 106 79 18 22 34 33 30 9 12 6 340
35 36 34 36 41 49 55 60 65 67 68 72 73 77 80 85 84 80 77 73 74 63 45 355 311 322 113 78 71 20 357 17 42 47 15 20 5 356
43 40 34 36 41 47 55 63 66 65 65 69 72 76 79 87 96 94 89 83 71 70 44 352 357 36 60 77 80 41 5 1 13 34 40 48 85 5
65 54 44 40 42 48 58 65 68 63 61 67 72 79 88 92 95 95 92 89 91 79 65 51 41 50 56 68 74 55 38 18 7 15 2 3 18 13